Weather History for West Palm Beach, FL

Change the Weather History Date:

Friday, August 8, 2014

  Actual Average Record
Temperature  
Mean Temperature 84 °F 83 °F  
Max Temperature 92 °F 90 °F 96 °F (1970)
Min Temperature 76 °F 76 °F 66 °F (1950)
Degree Days  
Heating Degree Days 0 0  
Month to date heating degree days 0 0  
Since 1 June heating degree days 0 0  
Since 1 July heating degree days 0 0  
Cooling Degree Days 19 18  
Month to date cooling degree days 149 144  
Year to date cooling degree days 2553 2292  
Since 1 June cooling degree days 1201 1183  
Growing Degree Days 33 (Base 50)    
Moisture  
Dew Point 75 °F    
Average Humidity 77    
Maximum Humidity 94    
Minimum Humidity 60    
Precipitation  
Precipitation 0.00 in 0.24 in 2.39 in (2010)
Month to date precipitation 4.55 1.82  
Year to date precipitation 37.98 34.59  
Snow  
Snow 0.00 in - - ()
Month to date snowfall 0.0  
Since 1 June snowfall 0.0  
Since 1 July snowfall 0.0  
Snow Depth 0.00 in    
Sea Level Pressure  
Sea Level Pressure 30.02 in    
Wind  
Wind Speed 6 mph (SSE)    
Max Wind Speed 18 mph    
Max Gust Speed 22 mph    
Visibility 10 miles    
Events Thunderstorm    
T = Trace of Precipitation, MM = Missing Value Source: NWS Daily Summary

Daily Weather History Graph

Daily Weather History Graph

Search for Another Location

Airport:

Trip Planner

Search our weather history database for the weather conditions in past years. The results will help you decide how hot, cold, wet, or windy it might be!

Date:

Astronomy

Aug. 08, 2014 Rise Set
Actual Time 6:48 AM EDT 8:02 PM EDT
Civil Twilight 6:24 AM EDT 8:27 PM EDT
Nautical Twilight 5:54 AM EDT 8:56 PM EDT
Astronomical Twilight 5:24 AM EDT 9:26 PM EDT
Moon 6:11 PM EDT (8/8) 4:23 AM EDT (8/8)
Length of Visible Light 14h 03m
Length of Day
13h 14m
Waxing Gibbous, 93% of the Moon is Illuminated
Aug 8
Waxing Gibbous
Aug 10
Full
Aug 17
Last Quarter
Aug 25
New
Sep 2
First Quarter

Hourly Weather History & Observations

Time (EDT) Temp. Heat Index Dew Point Humidity Pressure Visibility Wind Dir Wind Speed Gust Speed Precip Events Conditions
12:53 AM 75.9 °F - 71.1 °F 85% 30.01 in 10.0 mi Calm Calm - 0.00 in   Overcast
1:53 AM 75.9 °F - 73.0 °F 91% 29.99 in 10.0 mi South 6.9 mph - N/A   Overcast
2:53 AM 75.9 °F - 73.9 °F 94% 29.99 in 10.0 mi Calm Calm - N/A   Overcast
3:53 AM 77.0 °F - 73.9 °F 90% 29.99 in 10.0 mi NW 5.8 mph - N/A   Mostly Cloudy
4:53 AM 78.1 °F - 73.9 °F 87% 29.98 in 10.0 mi Calm Calm - N/A   Mostly Cloudy
5:53 AM 77.0 °F - 73.9 °F 90% 29.98 in 10.0 mi Calm Calm - N/A   Mostly Cloudy
6:53 AM 77.0 °F - 73.9 °F 90% 30.01 in 10.0 mi West 3.5 mph - N/A   Mostly Cloudy
7:53 AM 79.0 °F - 75.0 °F 88% 30.04 in 10.0 mi South 3.5 mph - N/A   Mostly Cloudy
8:53 AM 80.1 °F 85.4 °F 75.9 °F 87% 30.04 in 10.0 mi SW 3.5 mph - N/A   Mostly Cloudy
9:53 AM 84.0 °F 91.9 °F 75.0 °F 74% 30.04 in 10.0 mi Variable 4.6 mph - N/A   Mostly Cloudy
10:53 AM 86.0 °F 96.0 °F 75.9 °F 72% 30.04 in 10.0 mi Calm Calm - N/A   Mostly Cloudy
11:53 AM 89.1 °F 100.2 °F 75.9 °F 65% 30.05 in 10.0 mi WNW 3.5 mph - N/A   Mostly Cloudy
12:53 PM 90.0 °F 100.2 °F 75.0 °F 61% 30.04 in 10.0 mi Variable 3.5 mph - N/A   Mostly Cloudy
1:53 PM 91.0 °F 101.6 °F 75.0 °F 59% 30.04 in 10.0 mi ESE 12.7 mph - N/A   Mostly Cloudy
2:47 PM 91.4 °F 100.1 °F 73.4 °F 55% 30.01 in 10.0 mi SE 15.0 mph - N/A Thunderstorm Thunderstorm
2:53 PM 91.0 °F 99.3 °F 73.0 °F 55% 30.00 in 10.0 mi SE 13.8 mph - N/A Thunderstorm Thunderstorm
3:53 PM 88.0 °F 96.5 °F 73.9 °F 63% 29.99 in 10.0 mi SE 12.7 mph - N/A Thunderstorm Thunderstorm
4:23 PM 87.1 °F 95.4 °F 73.9 °F 65% 30.00 in 10.0 mi ESE 10.4 mph - N/A   Mostly Cloudy
4:53 PM 86.0 °F 93.8 °F 73.9 °F 67% 29.99 in 10.0 mi SE 12.7 mph - N/A   Mostly Cloudy
5:53 PM 84.9 °F 93.3 °F 75.0 °F 72% 29.99 in 10.0 mi SE 16.1 mph - N/A   Mostly Cloudy
6:53 PM 84.9 °F 93.3 °F 75.0 °F 72% 30.01 in 10.0 mi SE 8.1 mph - N/A   Mostly Cloudy
7:53 PM 84.9 °F 94.1 °F 75.9 °F 74% 30.01 in 10.0 mi SSE 12.7 mph - N/A   Mostly Cloudy
8:53 PM 84.9 °F 92.1 °F 73.9 °F 69% 30.03 in 10.0 mi SSE 8.1 mph - N/A   Scattered Clouds
9:53 PM 84.0 °F 92.6 °F 75.9 °F 76% 30.05 in 10.0 mi SE 5.8 mph - N/A   Mostly Cloudy
10:53 PM 84.0 °F 92.6 °F 75.9 °F 76% 30.06 in 10.0 mi SSW 4.6 mph - N/A   Mostly Cloudy
11:53 PM 82.9 °F 90.8 °F 75.9 °F 79% 30.06 in 10.0 mi Calm Calm - N/A   Overcast